Time,TemperatureF,DewpointF,PressureIn,WindDirection,WindDirectionDegrees,WindSpeedMPH,WindSpeedGustMPH,Humidity,HourlyPrecipIn,Conditions,Clouds,dailyrainin,SoftwareType,DateUTC
2013-02-07 00:01:00,51.9,38.0,30.03,ENE,76,0.0,3.0,59,0.00,,---,0.01,VWS V14.01,2013-02-07 06:01:00,
2013-02-07 00:06:00,51.8,37.9,30.02,ENE,76,3.0,3.0,59,0.00,,---,0.00,VWS V14.01,2013-02-07 06:06:00,
2013-02-07 00:11:00,51.8,37.9,30.03,ENE,76,0.0,3.0,59,0.00,,---,0.00,VWS V14.01,2013-02-07 06:11:00,
2013-02-07 00:16:00,51.7,37.8,30.02,ENE,76,0.0,3.0,59,0.00,,---,0.00,VWS V14.01,2013-02-07 06:16:00,
2013-02-07 00:21:00,51.5,37.7,30.02,ENE,76,3.0,3.0,59,0.00,,---,0.00,VWS V14.01,2013-02-07 06:21:00,
2013-02-07 00:26:00,51.5,37.7,30.02,ENE,76,2.0,3.0,59,0.00,,---,0.00,VWS V14.01,2013-02-07 06:26:00,
2013-02-07 00:31:00,51.5,37.7,30.02,ENE,76,1.0,3.0,59,0.00,,---,0.00,VWS V14.01,2013-02-07 06:31:00,
2013-02-07 00:36:00,51.5,37.7,30.02,ENE,66,2.0,3.0,59,0.00,,---,0.00,VWS V14.01,2013-02-07 06:36:00,
2013-02-07 00:41:00,51.5,37.7,30.02,NE,55,3.0,4.0,59,0.00,,---,0.00,VWS V14.01,2013-02-07 06:41:00,
2013-02-07 00:46:00,51.6,37.8,30.02,ENE,57,0.0,4.0,59,0.00,,---,0.00,VWS V14.01,2013-02-07 06:46:00,
2013-02-07 00:51:00,51.5,37.7,30.02,ENE,57,0.0,4.0,59,0.00,,---,0.00,VWS V14.01,2013-02-07 06:51:00,
2013-02-07 00:56:00,51.4,38.0,30.02,ENE,57,0.0,4.0,60,0.00,,---,0.00,VWS V14.01,2013-02-07 06:56:00,
2013-02-07 01:01:00,51.2,38.2,30.02,ENE,57,0.0,4.0,61,0.00,,---,0.00,VWS V14.01,2013-02-07 07:01:00,
2013-02-07 01:06:00,50.8,38.3,30.02,ENE,57,0.0,0.0,62,0.00,,---,0.00,VWS V14.01,2013-02-07 07:06:00,
2013-02-07 01:11:00,50.4,38.3,30.02,ENE,57,0.0,0.0,63,0.00,,---,0.00,VWS V14.01,2013-02-07 07:11:00,
2013-02-07 01:16:00,49.9,38.2,30.01,ENE,57,0.0,1.0,64,0.00,,---,0.00,VWS V14.01,2013-02-07 07:16:00,
2013-02-07 01:21:00,49.5,38.2,30.01,ENE,57,0.0,1.0,65,0.00,,---,0.00,VWS V14.01,2013-02-07 07:21:00,
2013-02-07 01:26:00,49.1,38.2,30.01,ENE,57,0.0,1.0,66,0.00,,---,0.00,VWS V14.01,2013-02-07 07:26:00,
2013-02-07 01:31:00,48.8,38.0,30.01,ENE,57,1.0,2.0,66,0.00,,---,0.00,VWS V14.01,2013-02-07 07:31:00,
2013-02-07 01:36:00,48.6,37.8,30.01,ENE,57,0.0,1.0,66,0.00,,---,0.00,VWS V14.01,2013-02-07 07:36:00,
2013-02-07 01:41:00,48.5,38.1,30.01,ENE,57,0.0,1.0,67,0.00,,---,0.00,VWS V14.01,2013-02-07 07:41:00,
2013-02-07 01:46:00,48.5,38.1,30.01,ENE,57,0.0,2.0,67,0.00,,---,0.00,VWS V14.01,2013-02-07 07:46:00,
2013-02-07 01:51:00,48.5,38.1,30.00,ENE,57,1.0,2.0,67,0.00,,---,0.00,VWS V14.01,2013-02-07 07:51:00,
2013-02-07 01:56:00,48.5,38.1,30.00,ENE,57,0.0,2.0,67,0.00,,---,0.00,VWS V14.01,2013-02-07 07:56:00,
2013-02-07 02:00:00,48.6,38.9,30.00,ENE,57,0.0,2.0,69,0.00,,---,0.00,VWS V14.01,2013-02-07 08:00:00,
2013-02-07 02:06:00,48.6,38.9,30.00,ENE,57,0.0,1.0,69,0.00,,---,0.00,VWS V14.01,2013-02-07 08:06:00,
2013-02-07 02:10:00,48.3,38.6,30.00,ENE,57,1.0,1.0,69,0.00,,---,0.00,VWS V14.01,2013-02-07 08:10:00,
2013-02-07 02:16:00,48.1,38.8,30.00,ENE,57,0.0,1.0,70,0.00,,---,0.00,VWS V14.01,2013-02-07 08:16:00,
2013-02-07 02:20:00,47.8,38.9,30.00,ENE,57,0.0,2.0,71,0.00,,---,0.00,VWS V14.01,2013-02-07 08:20:00,
2013-02-07 02:25:00,47.5,38.9,30.00,ENE,57,2.0,3.0,72,0.00,,---,0.00,VWS V14.01,2013-02-07 08:25:00,
2013-02-07 02:30:00,47.4,38.8,30.00,ENE,57,1.0,3.0,72,0.00,,---,0.00,VWS V14.01,2013-02-07 08:30:00,
2013-02-07 02:35:00,47.3,38.4,30.00,ESE,119,2.0,3.0,71,0.00,,---,0.00,VWS V14.01,2013-02-07 08:35:00,
2013-02-07 02:40:00,47.4,38.5,30.00,ESE,111,0.0,4.0,71,0.00,,---,0.00,VWS V14.01,2013-02-07 08:40:00,
2013-02-07 02:45:00,47.4,38.1,30.00,ESE,111,0.0,4.0,70,0.00,,---,0.00,VWS V14.01,2013-02-07 08:45:00,
2013-02-07 02:50:00,47.4,37.8,30.00,East,86,0.0,5.0,69,0.00,,---,0.00,VWS V14.01,2013-02-07 08:50:00,
2013-02-07 02:55:00,47.7,38.0,30.00,East,86,0.0,5.0,69,0.00,,---,0.00,VWS V14.01,2013-02-07 08:55:00,
2013-02-07 03:00:00,47.9,37.9,30.00,East,86,0.0,5.0,68,0.00,,---,0.00,VWS V14.01,2013-02-07 09:00:00,
2013-02-07 03:05:00,48.3,38.2,30.00,East,86,0.0,0.0,68,0.00,,---,0.00,VWS V14.01,2013-02-07 09:05:00,
2013-02-07 03:10:00,48.4,38.3,30.00,East,86,0.0,0.0,68,0.00,,---,0.00,VWS V14.01,2013-02-07 09:10:00,
2013-02-07 03:15:00,48.2,38.2,29.99,East,86,0.0,2.0,68,0.00,,---,0.00,VWS V14.01,2013-02-07 09:15:00,
2013-02-07 03:20:00,48.1,38.0,29.99,East,86,2.0,2.0,68,0.00,,---,0.00,VWS V14.01,2013-02-07 09:20:00,
2013-02-07 03:25:00,48.0,38.0,29.99,East,86,0.0,2.0,68,0.00,,---,0.00,VWS V14.01,2013-02-07 09:25:00,
2013-02-07 03:30:00,48.0,38.0,29.99,ENE,58,0.0,3.0,68,0.00,,---,0.00,VWS V14.01,2013-02-07 09:30:00,
2013-02-07 03:35:00,48.1,38.0,29.99,ENE,59,0.0,2.0,68,0.00,,---,0.00,VWS V14.01,2013-02-07 09:35:00,
2013-02-07 03:40:00,48.1,38.0,29.99,ENE,58,1.0,2.0,68,0.00,,---,0.00,VWS V14.01,2013-02-07 09:40:00,
2013-02-07 03:45:00,47.9,38.2,29.98,ENE,59,0.0,2.0,69,0.00,,---,0.00,VWS V14.01,2013-02-07 09:45:00,
2013-02-07 03:50:00,47.5,38.2,29.98,ENE,59,1.0,2.0,70,0.00,,---,0.00,VWS V14.01,2013-02-07 09:50:00,
2013-02-07 03:55:00,47.1,37.8,29.98,ENE,59,1.0,2.0,70,0.00,,---,0.00,VWS V14.01,2013-02-07 09:55:00,
2013-02-07 04:00:00,46.8,37.9,29.98,ENE,58,0.0,2.0,71,0.00,,---,0.00,VWS V14.01,2013-02-07 10:00:00,
2013-02-07 04:05:00,46.5,38.0,29.98,ESE,121,0.0,2.0,72,0.00,,---,0.00,VWS V14.01,2013-02-07 10:05:00,
2013-02-07 04:10:00,46.3,38.1,29.98,ESE,121,1.0,3.0,73,0.00,,---,0.00,VWS V14.01,2013-02-07 10:10:00,
2013-02-07 04:15:00,46.1,37.9,29.98,ESE,121,0.0,3.0,73,0.00,,---,0.00,VWS V14.01,2013-02-07 10:15:00,
2013-02-07 04:20:00,46.0,37.8,29.98,ESE,108,0.0,3.0,73,0.00,,---,0.00,VWS V14.01,2013-02-07 10:20:00,
2013-02-07 04:25:00,46.0,38.2,29.98,ESE,108,1.0,3.0,74,0.00,,---,0.00,VWS V14.01,2013-02-07 10:25:00,
2013-02-07 04:30:00,46.0,38.2,29.98,SE,131,0.0,3.0,74,0.00,,---,0.00,VWS V14.01,2013-02-07 10:30:00,
2013-02-07 04:35:00,46.2,38.4,29.98,ESE,119,0.0,0.0,74,0.00,,---,0.00,VWS V14.01,2013-02-07 10:35:00,
2013-02-07 04:40:00,46.4,38.2,29.98,ESE,109,0.0,3.0,73,0.00,,---,0.00,VWS V14.01,2013-02-07 10:40:00,
2013-02-07 04:45:00,46.4,38.2,29.98,ESE,109,0.0,3.0,73,0.00,,---,0.00,VWS V14.01,2013-02-07 10:45:00,
2013-02-07 04:50:00,46.2,38.0,29.98,ESE,109,0.0,3.0,73,0.00,,---,0.00,VWS V14.01,2013-02-07 10:50:00,
2013-02-07 04:55:00,45.8,38.0,29.98,ESE,109,0.0,3.0,74,0.00,,---,0.00,VWS V14.01,2013-02-07 10:55:00,
2013-02-07 05:00:00,45.4,38.0,29.97,ESE,109,0.0,3.0,75,0.00,,---,0.00,VWS V14.01,2013-02-07 11:00:00,
2013-02-07 05:05:00,45.0,37.9,29.97,ESE,109,0.0,2.0,76,0.00,,---,0.00,VWS V14.01,2013-02-07 11:05:00,
2013-02-07 05:10:00,44.7,37.9,29.96,ESE,105,1.0,3.0,77,0.00,,---,0.00,VWS V14.01,2013-02-07 11:10:00,
2013-02-07 05:15:00,44.8,38.4,29.96,ESE,105,1.0,3.0,78,0.00,,---,0.00,VWS V14.01,2013-02-07 11:15:00,
2013-02-07 05:20:00,44.8,38.0,29.96,ESE,105,0.0,3.0,77,0.00,,---,0.00,VWS V14.01,2013-02-07 11:20:00,
2013-02-07 05:25:00,44.9,38.1,29.96,ESE,105,1.0,4.0,77,0.00,,---,0.00,VWS V14.01,2013-02-07 11:25:00,
2013-02-07 05:30:00,45.1,38.7,29.96,ESE,117,3.0,4.0,78,0.00,,---,0.00,VWS V14.01,2013-02-07 11:30:00,
2013-02-07 05:35:00,45.9,39.1,29.95,SSE,150,1.0,6.0,77,0.00,,---,0.00,VWS V14.01,2013-02-07 11:35:00,
2013-02-07 05:40:00,46.9,39.7,29.95,ESE,120,4.0,6.0,76,0.00,,---,0.00,VWS V14.01,2013-02-07 11:40:00,
2013-02-07 05:45:00,47.7,39.8,29.95,SE,146,2.0,6.0,74,0.00,,---,0.00,VWS V14.01,2013-02-07 11:45:00,
2013-02-07 05:50:00,48.3,40.1,29.95,SE,136,3.0,6.0,73,0.00,,---,0.00,VWS V14.01,2013-02-07 11:50:00,
2013-02-07 05:55:00,48.6,40.3,29.95,SE,134,3.0,6.0,73,0.00,,---,0.00,VWS V14.01,2013-02-07 11:55:00,
2013-02-07 06:00:00,48.9,40.6,29.95,South,173,1.0,6.0,73,0.00,,---,0.00,VWS V14.01,2013-02-07 12:00:00,
2013-02-07 06:05:00,49.1,40.8,29.95,South,171,1.0,3.0,73,0.00,,---,0.00,VWS V14.01,2013-02-07 12:05:00,
2013-02-07 06:10:00,49.2,40.6,29.95,South,172,0.0,3.0,72,0.00,,---,0.00,VWS V14.01,2013-02-07 12:10:00,
2013-02-07 06:16:00,49.2,40.9,29.95,South,178,0.0,4.0,73,0.00,,---,0.00,VWS V14.01,2013-02-07 12:16:00,
2013-02-07 06:21:00,49.1,40.8,29.96,SE,142,0.0,4.0,73,0.00,,---,0.00,VWS V14.01,2013-02-07 12:21:00,
2013-02-07 06:26:00,49.0,40.7,29.95,SE,146,2.0,6.0,73,0.00,,---,0.00,VWS V14.01,2013-02-07 12:26:00,
2013-02-07 06:31:00,49.0,40.7,29.95,SE,139,3.0,6.0,73,0.00,,---,0.00,VWS V14.01,2013-02-07 12:31:00,
2013-02-07 06:36:00,49.1,40.8,29.95,SE,128,1.0,3.0,73,0.00,,---,0.00,VWS V14.01,2013-02-07 12:36:00,
2013-02-07 06:41:00,49.2,41.3,29.95,SSE,151,0.0,4.0,74,0.00,,---,0.00,VWS V14.01,2013-02-07 12:41:00,
2013-02-07 06:46:00,49.2,41.3,29.95,SSE,160,1.0,4.0,74,0.00,,---,0.00,VWS V14.01,2013-02-07 12:46:00,
2013-02-07 06:51:00,49.2,41.6,29.95,SE,133,3.0,6.0,75,0.00,,---,0.00,VWS V14.01,2013-02-07 12:51:00,
2013-02-07 06:56:00,49.3,42.1,29.95,SSE,163,3.0,6.0,76,0.00,,---,0.00,VWS V14.01,2013-02-07 12:56:00,
2013-02-07 07:01:00,49.4,42.5,29.95,SE,129,2.0,6.0,77,0.00,,---,0.00,VWS V14.01,2013-02-07 13:01:00,
2013-02-07 07:06:00,49.6,43.0,29.95,SSE,147,2.0,6.0,78,0.00,,---,0.00,VWS V14.01,2013-02-07 13:06:00,
2013-02-07 07:11:00,49.8,43.2,29.95,SE,141,2.0,6.0,78,0.00,,---,0.00,VWS V14.01,2013-02-07 13:11:00,
2013-02-07 07:16:00,50.0,43.4,29.95,SE,139,2.0,6.0,78,0.00,,---,0.00,VWS V14.01,2013-02-07 13:16:00,
2013-02-07 07:21:00,50.3,43.7,29.95,SE,133,1.0,6.0,78,0.00,,---,0.00,VWS V14.01,2013-02-07 13:21:00,
2013-02-07 07:26:00,50.6,44.3,29.95,SSW,197,3.0,6.0,79,0.00,,---,0.00,VWS V14.01,2013-02-07 13:26:00,
2013-02-07 07:31:00,50.8,44.5,29.95,SSE,161,1.0,6.0,79,0.00,,---,0.00,VWS V14.01,2013-02-07 13:31:00,
2013-02-07 07:36:00,51.1,44.8,29.95,SSE,153,1.0,6.0,79,0.00,,---,0.00,VWS V14.01,2013-02-07 13:36:00,
2013-02-07 07:41:00,51.4,45.5,29.95,SSE,163,5.0,8.0,80,0.00,,---,0.00,VWS V14.01,2013-02-07 13:41:00,
2013-02-07 07:46:00,51.8,45.8,29.95,SE,138,2.0,8.0,80,0.00,,---,0.00,VWS V14.01,2013-02-07 13:46:00,
2013-02-07 07:51:00,52.1,46.1,29.95,SE,138,1.0,8.0,80,0.00,,---,0.00,VWS V14.01,2013-02-07 13:51:00,
2013-02-07 07:56:00,52.5,46.2,29.95,South,180,1.0,8.0,79,0.00,,---,0.00,VWS V14.01,2013-02-07 13:56:00,
2013-02-07 08:01:00,53.0,46.7,29.95,SSE,166,2.0,8.0,79,0.00,,---,0.00,VWS V14.01,2013-02-07 14:01:00,
2013-02-07 08:06:00,53.2,46.5,29.95,SSW,199,3.0,6.0,78,0.00,,---,0.00,VWS V14.01,2013-02-07 14:06:00,
2013-02-07 08:11:00,53.5,46.8,29.95,SSE,162,0.0,6.0,78,0.00,,---,0.00,VWS V14.01,2013-02-07 14:11:00,
2013-02-07 08:16:00,53.9,47.2,29.95,SSE,147,4.0,7.0,78,0.00,,---,0.00,VWS V14.01,2013-02-07 14:16:00,
2013-02-07 08:21:00,54.3,47.6,29.95,SSE,158,4.0,7.0,78,0.00,,---,0.00,VWS V14.01,2013-02-07 14:21:00,
2013-02-07 08:26:00,54.7,47.6,29.95,SE,133,3.0,7.0,77,0.00,,---,0.00,VWS V14.01,2013-02-07 14:26:00,
2013-02-07 08:31:00,55.0,47.6,29.95,SSE,159,3.0,7.0,76,0.00,,---,0.00,VWS V14.01,2013-02-07 14:31:00,
2013-02-07 08:36:00,55.2,47.8,29.95,SSE,165,5.0,5.0,76,0.00,,---,0.00,VWS V14.01,2013-02-07 14:36:00,
2013-02-07 08:40:00,55.3,48.2,29.95,SE,143,2.0,6.0,77,0.00,,---,0.00,VWS V14.01,2013-02-07 14:40:00,
2013-02-07 08:45:00,55.8,48.4,29.95,SE,128,4.0,7.0,76,0.00,,---,0.00,VWS V14.01,2013-02-07 14:45:00,
2013-02-07 08:50:00,56.3,48.5,29.95,SSE,162,4.0,9.0,75,0.00,,---,0.00,VWS V14.01,2013-02-07 14:50:00,
2013-02-07 08:55:00,56.6,48.8,29.95,SSE,159,1.0,9.0,75,0.00,,---,0.00,VWS V14.01,2013-02-07 14:55:00,
2013-02-07 09:00:00,56.9,49.1,29.95,SE,132,2.0,9.0,75,0.00,,---,0.00,VWS V14.01,2013-02-07 15:00:00,
2013-02-07 09:05:00,57.3,49.1,29.95,SSE,156,0.0,1.0,74,0.00,,---,0.00,VWS V14.01,2013-02-07 15:05:00,
2013-02-07 09:10:00,57.9,49.7,29.95,South,189,4.0,10.0,74,0.00,,---,0.00,VWS V14.01,2013-02-07 15:10:00,
2013-02-07 09:15:00,58.3,49.7,29.95,SE,127,8.0,10.0,73,0.00,,---,0.00,VWS V14.01,2013-02-07 15:15:00,
2013-02-07 09:20:00,58.8,50.2,29.95,SSE,150,9.0,11.0,73,0.00,,---,0.00,VWS V14.01,2013-02-07 15:20:00,
2013-02-07 09:25:00,59.1,50.1,29.95,SE,143,5.0,11.0,72,0.00,,---,0.00,VWS V14.01,2013-02-07 15:25:00,
2013-02-07 09:30:00,59.5,50.5,29.95,South,186,4.0,11.0,72,0.00,,---,0.00,VWS V14.01,2013-02-07 15:30:00,
2013-02-07 09:35:00,59.6,50.6,29.95,SE,141,3.0,7.0,72,0.00,,---,0.00,VWS V14.01,2013-02-07 15:35:00,
2013-02-07 09:40:00,59.9,50.5,29.95,SE,138,5.0,10.0,71,0.00,,---,0.00,VWS V14.01,2013-02-07 15:40:00,
2013-02-07 09:45:00,60.4,51.3,29.94,South,177,3.0,10.0,72,0.00,,---,0.00,VWS V14.01,2013-02-07 15:45:00,
2013-02-07 09:50:00,61.1,51.2,29.94,SSW,204,5.0,10.0,70,0.00,,---,0.00,VWS V14.01,2013-02-07 15:50:00,
2013-02-07 09:56:00,61.7,51.4,29.94,SE,124,5.0,10.0,69,0.00,,---,0.00,VWS V14.01,2013-02-07 15:56:00,
2013-02-07 10:01:00,62.0,51.3,29.95,South,173,5.0,10.0,68,0.00,,---,0.00,VWS V14.01,2013-02-07 16:01:00,
2013-02-07 10:06:00,62.0,51.7,29.95,South,178,4.0,6.0,69,0.00,,---,0.00,VWS V14.01,2013-02-07 16:06:00,
2013-02-07 10:11:00,62.0,51.7,29.95,SSE,160,4.0,8.0,69,0.00,,---,0.00,VWS V14.01,2013-02-07 16:11:00,
2013-02-07 10:16:00,62.4,52.1,29.94,South,176,7.0,8.0,69,0.00,,---,0.00,VWS V14.01,2013-02-07 16:16:00,
2013-02-07 10:21:00,62.3,52.0,29.94,South,171,3.0,9.0,69,0.00,,---,0.00,VWS V14.01,2013-02-07 16:21:00,
2013-02-07 10:26:00,62.5,51.8,29.94,SSW,195,4.0,9.0,68,0.00,,---,0.00,VWS V14.01,2013-02-07 16:26:00,
2013-02-07 10:31:00,62.6,52.3,29.94,SW,217,5.0,9.0,69,0.00,,---,0.00,VWS V14.01,2013-02-07 16:31:00,
2013-02-07 10:36:00,63.1,52.4,29.94,South,182,3.0,6.0,68,0.00,,---,0.00,VWS V14.01,2013-02-07 16:36:00,
2013-02-07 10:41:00,63.3,52.2,29.93,South,180,3.0,8.0,67,0.00,,---,0.00,VWS V14.01,2013-02-07 16:41:00,
2013-02-07 10:46:00,63.6,52.5,29.94,SE,144,4.0,8.0,67,0.00,,---,0.00,VWS V14.01,2013-02-07 16:46:00,
2013-02-07 10:51:00,63.9,52.3,29.94,SSE,165,2.0,8.0,66,0.00,,---,0.00,VWS V14.01,2013-02-07 16:51:00,
2013-02-07 10:56:00,63.7,52.5,29.94,SSE,164,2.0,9.0,67,0.00,,---,0.00,VWS V14.01,2013-02-07 16:56:00,
2013-02-07 11:01:00,63.5,52.4,29.94,SSW,196,3.0,9.0,67,0.00,,---,0.00,VWS V14.01,2013-02-07 17:01:00,
2013-02-07 11:06:00,63.4,52.7,29.94,SSE,153,4.0,6.0,68,0.00,,---,0.00,VWS V14.01,2013-02-07 17:06:00,
2013-02-07 11:11:00,63.4,52.7,29.94,SSE,161,1.0,6.0,68,0.00,,---,0.00,VWS V14.01,2013-02-07 17:11:00,
2013-02-07 11:16:00,63.6,52.5,29.93,South,188,1.0,6.0,67,0.00,,---,0.00,VWS V14.01,2013-02-07 17:16:00,
2013-02-07 11:21:00,63.6,52.9,29.93,SSW,201,2.0,6.0,68,0.00,,---,0.00,VWS V14.01,2013-02-07 17:21:00,
2013-02-07 11:26:00,63.8,52.7,29.93,SSW,205,3.0,6.0,67,0.00,,---,0.00,VWS V14.01,2013-02-07 17:26:00,
2013-02-07 11:31:00,63.9,52.7,29.93,South,180,4.0,6.0,67,0.00,,---,0.00,VWS V14.01,2013-02-07 17:31:00,
2013-02-07 11:36:00,63.9,52.7,29.93,SSW,200,3.0,5.0,67,0.00,,---,0.00,VWS V14.01,2013-02-07 17:36:00,
2013-02-07 11:41:00,64.0,53.2,29.94,SSW,192,1.0,5.0,68,0.00,,---,0.00,VWS V14.01,2013-02-07 17:41:00,
2013-02-07 11:46:00,64.1,52.9,29.94,SSW,205,2.0,5.0,67,0.00,,---,0.00,VWS V14.01,2013-02-07 17:46:00,
2013-02-07 11:51:00,64.2,53.0,29.93,SW,223,2.0,5.0,67,0.00,,---,0.00,VWS V14.01,2013-02-07 17:51:00,
2013-02-07 11:56:00,64.3,52.7,29.93,SSW,209,2.0,6.0,66,0.00,,---,0.00,VWS V14.01,2013-02-07 17:56:00,
2013-02-07 12:01:00,64.2,53.0,29.93,South,170,0.0,6.0,67,0.00,,---,0.00,VWS V14.01,2013-02-07 18:01:00,
2013-02-07 12:06:00,64.3,53.1,29.92,South,170,0.0,3.0,67,0.00,,---,0.00,VWS V14.01,2013-02-07 18:06:00,
2013-02-07 12:11:00,64.6,53.0,29.93,WSW,246,4.0,6.0,66,0.00,,---,0.00,VWS V14.01,2013-02-07 18:11:00,
2013-02-07 12:16:00,64.8,53.2,29.92,SSW,212,4.0,6.0,66,0.00,,---,0.00,VWS V14.01,2013-02-07 18:16:00,
2013-02-07 12:21:00,65.2,53.2,29.92,South,185,2.0,6.0,65,0.00,,---,0.00,VWS V14.01,2013-02-07 18:21:00,
2013-02-07 12:26:00,65.4,53.3,29.92,SW,225,1.0,6.0,65,0.00,,---,0.00,VWS V14.01,2013-02-07 18:26:00,
2013-02-07 12:31:00,65.8,53.7,29.91,ESE,122,1.0,6.0,65,0.00,,---,0.00,VWS V14.01,2013-02-07 18:31:00,
2013-02-07 12:36:00,66.7,54.2,29.91,WSW,242,0.0,3.0,64,0.00,,---,0.00,VWS V14.01,2013-02-07 18:36:00,
2013-02-07 12:41:00,67.3,53.8,29.91,WSW,239,4.0,7.0,62,0.00,,---,0.00,VWS V14.01,2013-02-07 18:41:00,
2013-02-07 12:46:00,67.5,54.0,29.91,WSW,238,6.0,7.0,62,0.00,,---,0.00,VWS V14.01,2013-02-07 18:46:00,
2013-02-07 12:51:00,68.0,54.1,29.91,SE,135,1.0,7.0,61,0.00,,---,0.00,VWS V14.01,2013-02-07 18:51:00,
2013-02-07 12:56:00,68.1,54.2,29.90,SW,234,4.0,7.0,61,0.00,,---,0.00,VWS V14.01,2013-02-07 18:56:00,
2013-02-07 13:01:00,68.5,54.5,29.90,West,273,1.0,7.0,61,0.00,,---,0.00,VWS V14.01,2013-02-07 19:01:00,
2013-02-07 13:06:00,69.4,54.5,29.90,WSW,252,0.0,1.0,59,0.00,,---,0.00,VWS V14.01,2013-02-07 19:06:00,
2013-02-07 13:11:00,70.1,54.2,29.90,South,187,3.0,8.0,57,0.00,,---,0.00,VWS V14.01,2013-02-07 19:11:00,
2013-02-07 13:16:00,69.7,53.8,29.89,SW,220,3.0,8.0,57,0.00,,---,0.00,VWS V14.01,2013-02-07 19:16:00,
2013-02-07 13:21:00,69.3,53.9,29.89,WSW,244,4.0,8.0,58,0.00,,---,0.00,VWS V14.01,2013-02-07 19:21:00,
2013-02-07 13:26:00,69.0,53.6,29.89,SSW,197,3.0,11.0,58,0.00,,---,0.00,VWS V14.01,2013-02-07 19:26:00,
2013-02-07 13:31:00,68.8,53.4,29.88,WSW,255,7.0,11.0,58,0.00,,---,0.00,VWS V14.01,2013-02-07 19:31:00,
2013-02-07 13:36:00,68.4,53.1,29.88,South,181,4.0,6.0,58,0.00,,---,0.00,VWS V14.01,2013-02-07 19:36:00,
2013-02-07 13:41:00,68.3,53.0,29.88,South,184,4.0,10.0,58,0.00,,---,0.00,VWS V14.01,2013-02-07 19:41:00,
2013-02-07 13:46:00,68.5,53.2,29.87,SW,221,1.0,10.0,58,0.00,,---,0.00,VWS V14.01,2013-02-07 19:46:00,
2013-02-07 13:51:00,68.5,52.7,29.87,South,184,1.0,10.0,57,0.00,,---,0.00,VWS V14.01,2013-02-07 19:51:00,
2013-02-07 13:56:00,68.5,52.7,29.86,South,176,6.0,10.0,57,0.00,,---,0.00,VWS V14.01,2013-02-07 19:56:00,
2013-02-07 14:01:00,68.8,53.4,29.86,SSE,160,2.0,10.0,58,0.00,,---,0.00,VWS V14.01,2013-02-07 20:01:00,
2013-02-07 14:06:00,69.8,52.9,29.86,South,183,7.0,11.0,55,0.00,,---,0.00,VWS V14.01,2013-02-07 20:06:00,
2013-02-07 14:11:00,69.8,52.9,29.86,SSW,196,5.0,11.0,55,0.00,,---,0.00,VWS V14.01,2013-02-07 20:11:00,
2013-02-07 14:16:00,69.3,52.5,29.86,SSE,155,6.0,11.0,55,0.00,,---,0.00,VWS V14.01,2013-02-07 20:16:00,
2013-02-07 14:21:00,68.6,52.3,29.86,SSW,208,7.0,11.0,56,0.00,,---,0.00,VWS V14.01,2013-02-07 20:21:00,
2013-02-07 14:26:00,68.3,53.0,29.86,SW,219,5.0,11.0,58,0.00,,---,0.00,VWS V14.01,2013-02-07 20:26:00,
2013-02-07 14:31:00,68.7,52.9,29.86,SW,215,4.0,11.0,57,0.00,,---,0.00,VWS V14.01,2013-02-07 20:31:00,
2013-02-07 14:36:00,68.9,53.1,29.85,SW,219,2.0,8.0,57,0.00,,---,0.00,VWS V14.01,2013-02-07 20:36:00,
2013-02-07 14:41:00,68.5,52.7,29.85,SSW,205,6.0,11.0,57,0.00,,---,0.00,VWS V14.01,2013-02-07 20:41:00,
2013-02-07 14:46:00,67.9,52.6,29.85,South,190,7.0,12.0,58,0.00,,---,0.00,VWS V14.01,2013-02-07 20:46:00,
2013-02-07 14:51:00,67.6,52.8,29.85,South,175,2.0,12.0,59,0.00,,---,0.00,VWS V14.01,2013-02-07 20:51:00,
2013-02-07 14:56:00,67.6,52.8,29.85,West,263,6.0,12.0,59,0.00,,---,0.00,VWS V14.01,2013-02-07 20:56:00,
2013-02-07 15:01:00,67.5,52.7,29.85,SSW,194,4.0,12.0,59,0.00,,---,0.00,VWS V14.01,2013-02-07 21:01:00,
2013-02-07 15:06:00,68.2,53.8,29.85,South,190,7.0,7.0,60,0.00,,---,0.00,VWS V14.01,2013-02-07 21:06:00,
2013-02-07 15:11:00,69.0,53.6,29.85,SSW,198,2.0,8.0,58,0.00,,---,0.00,VWS V14.01,2013-02-07 21:11:00,
2013-02-07 15:16:00,69.7,53.8,29.85,WNW,285,3.0,8.0,57,0.00,,---,0.00,VWS V14.01,2013-02-07 21:16:00,
2013-02-07 15:21:00,70.4,54.0,29.84,WSW,256,2.0,8.0,56,0.00,,---,0.00,VWS V14.01,2013-02-07 21:21:00,
2013-02-07 15:26:00,70.2,53.3,29.84,SSW,194,3.0,8.0,55,0.00,,---,0.00,VWS V14.01,2013-02-07 21:26:00,
2013-02-07 15:31:00,69.2,53.3,29.84,South,172,4.0,8.0,57,0.00,,---,0.00,VWS V14.01,2013-02-07 21:31:00,
2013-02-07 15:36:00,68.6,53.2,29.84,SSW,208,4.0,4.0,58,0.00,,---,0.00,VWS V14.01,2013-02-07 21:36:00,
2013-02-07 15:41:00,68.2,53.3,29.84,SE,142,0.0,4.0,59,0.00,,---,0.00,VWS V14.01,2013-02-07 21:41:00,
2013-02-07 15:46:00,68.0,53.6,29.84,SSW,194,3.0,7.0,60,0.00,,---,0.00,VWS V14.01,2013-02-07 21:46:00,
2013-02-07 15:51:00,67.8,53.4,29.84,SSW,209,6.0,7.0,60,0.00,,---,0.00,VWS V14.01,2013-02-07 21:51:00,
2013-02-07 15:56:00,67.4,53.0,29.85,WSW,243,4.0,8.0,60,0.00,,---,0.00,VWS V14.01,2013-02-07 21:56:00,
2013-02-07 16:01:00,67.3,53.4,29.85,WSW,249,5.0,8.0,61,0.00,,---,0.00,VWS V14.01,2013-02-07 22:01:00,
2013-02-07 16:06:00,67.2,53.3,29.85,SSW,208,1.0,3.0,61,0.00,,---,0.00,VWS V14.01,2013-02-07 22:06:00,
2013-02-07 16:11:00,67.2,53.3,29.84,SW,215,7.0,7.0,61,0.00,,---,0.00,VWS V14.01,2013-02-07 22:11:00,
2013-02-07 16:16:00,67.1,53.2,29.84,SSW,213,2.0,7.0,61,0.00,,---,0.00,VWS V14.01,2013-02-07 22:16:00,
2013-02-07 16:21:00,66.9,53.0,29.85,South,171,5.0,7.0,61,0.00,,---,0.00,VWS V14.01,2013-02-07 22:21:00,
2013-02-07 16:26:00,66.8,52.9,29.84,SSW,196,3.0,7.0,61,0.00,,---,0.00,VWS V14.01,2013-02-07 22:26:00,
2013-02-07 16:31:00,66.7,53.3,29.84,South,190,3.0,7.0,62,0.00,,---,0.00,VWS V14.01,2013-02-07 22:31:00,
2013-02-07 16:36:00,66.5,53.1,29.84,SW,236,0.0,6.0,62,0.00,,---,0.00,VWS V14.01,2013-02-07 22:36:00,
2013-02-07 16:41:00,66.4,53.4,29.85,SW,231,5.0,6.0,63,0.00,,---,0.00,VWS V14.01,2013-02-07 22:41:00,
2013-02-07 16:46:00,66.2,53.2,29.85,SW,233,3.0,6.0,63,0.00,,---,0.00,VWS V14.01,2013-02-07 22:46:00,
2013-02-07 16:51:00,66.0,53.1,29.85,SW,233,3.0,6.0,63,0.00,,---,0.00,VWS V14.01,2013-02-07 22:51:00,
2013-02-07 16:56:00,65.9,53.4,29.85,WSW,242,2.0,6.0,64,0.00,,---,0.00,VWS V14.01,2013-02-07 22:56:00,
2013-02-07 17:01:00,65.7,53.2,29.85,SW,234,0.0,6.0,64,0.00,,---,0.00,VWS V14.01,2013-02-07 23:01:00,
2013-02-07 17:06:00,65.6,53.1,29.85,SW,223,0.0,3.0,64,0.00,,---,0.00,VWS V14.01,2013-02-07 23:06:00,
2013-02-07 17:11:00,65.5,53.4,29.85,WNW,289,4.0,4.0,65,0.00,,---,0.00,VWS V14.01,2013-02-07 23:11:00,
2013-02-07 17:16:00,65.3,53.2,29.85,WNW,284,2.0,8.0,65,0.00,,---,0.00,VWS V14.01,2013-02-07 23:16:00,
2013-02-07 17:21:00,65.0,53.4,29.85,WNW,284,4.0,8.0,66,0.00,,---,0.00,VWS V14.01,2013-02-07 23:21:00,
2013-02-07 17:26:00,64.8,53.6,29.86,WNW,300,1.0,8.0,67,0.00,,---,0.00,VWS V14.01,2013-02-07 23:26:00,
2013-02-07 17:31:00,64.6,53.4,29.86,NW,304,2.0,8.0,67,0.00,,---,0.00,VWS V14.01,2013-02-07 23:31:00,
2013-02-07 17:36:00,64.4,53.6,29.86,West,277,2.0,5.0,68,0.00,,---,0.00,VWS V14.01,2013-02-07 23:36:00,
2013-02-07 17:41:00,64.2,53.8,29.86,WNW,286,1.0,8.0,69,0.00,,---,0.00,VWS V14.01,2013-02-07 23:41:00,
2013-02-07 17:46:00,64.0,54.0,29.86,West,264,2.0,8.0,70,0.00,,---,0.00,VWS V14.01,2013-02-07 23:46:00,
2013-02-07 17:51:00,63.9,54.3,29.86,West,259,3.0,8.0,71,0.00,,---,0.00,VWS V14.01,2013-02-07 23:51:00,
2013-02-07 17:56:00,63.7,54.1,29.86,West,264,5.0,8.0,71,0.00,,---,0.00,VWS V14.01,2013-02-07 23:56:00,
2013-02-07 18:01:00,63.6,54.4,29.86,WSW,257,1.0,8.0,72,0.00,,---,0.00,VWS V14.01,2013-02-08 00:01:00,
2013-02-07 18:06:00,63.5,54.7,29.86,West,262,2.0,7.0,73,0.00,,---,0.00,VWS V14.01,2013-02-08 00:06:00,
2013-02-07 18:11:00,63.4,54.6,29.87,WSW,254,4.0,7.0,73,0.00,,---,0.00,VWS V14.01,2013-02-08 00:11:00,
2013-02-07 18:16:00,63.2,54.8,29.87,West,261,5.0,7.0,74,0.00,,---,0.00,VWS V14.01,2013-02-08 00:16:00,
2013-02-07 18:21:00,63.1,54.7,29.87,West,275,5.0,7.0,74,0.00,,---,0.00,VWS V14.01,2013-02-08 00:21:00,
2013-02-07 18:26:00,63.1,54.7,29.87,West,275,4.0,7.0,74,0.00,,---,0.00,VWS V14.01,2013-02-08 00:26:00,
2013-02-07 18:31:00,63.0,54.6,29.87,WSW,248,8.0,8.0,74,0.00,,---,0.00,VWS V14.01,2013-02-08 00:31:00,
2013-02-07 18:36:00,62.9,54.9,29.87,WSW,257,3.0,7.0,75,0.00,,---,0.00,VWS V14.01,2013-02-08 00:36:00,
2013-02-07 18:41:00,62.8,54.8,29.87,West,267,5.0,7.0,75,0.00,,---,0.00,VWS V14.01,2013-02-08 00:41:00,
2013-02-07 18:46:00,62.7,54.7,29.87,WSW,251,4.0,7.0,75,0.00,,---,0.00,VWS V14.01,2013-02-08 00:46:00,
2013-02-07 18:51:00,62.7,54.7,29.87,West,273,6.0,7.0,75,0.00,,---,0.00,VWS V14.01,2013-02-08 00:51:00,
2013-02-07 18:56:00,62.6,54.9,29.87,WSW,254,1.0,7.0,76,0.00,,---,0.00,VWS V14.01,2013-02-08 00:56:00,
2013-02-07 19:01:00,62.6,54.9,29.87,WSW,250,2.0,7.0,76,0.00,,---,0.00,VWS V14.01,2013-02-08 01:01:00,
2013-02-07 19:06:00,62.5,54.8,29.87,WSW,252,1.0,3.0,76,0.00,,---,0.00,VWS V14.01,2013-02-08 01:06:00,
2013-02-07 19:11:00,62.5,54.8,29.86,SW,234,0.0,4.0,76,0.00,,---,0.00,VWS V14.01,2013-02-08 01:11:00,
2013-02-07 19:16:00,62.4,55.1,29.86,SW,236,0.0,4.0,77,0.00,,---,0.00,VWS V14.01,2013-02-08 01:16:00,
2013-02-07 19:21:00,62.4,55.1,29.86,SW,236,0.0,4.0,77,0.00,,---,0.00,VWS V14.01,2013-02-08 01:21:00,
2013-02-07 19:26:00,62.3,55.0,29.86,SW,236,0.0,4.0,77,0.00,,---,0.00,VWS V14.01,2013-02-08 01:26:00,
2013-02-07 19:31:00,62.2,54.9,29.86,SW,236,1.0,4.0,77,0.00,,---,0.00,VWS V14.01,2013-02-08 01:31:00,
2013-02-07 19:36:00,62.1,54.8,29.86,SW,236,0.0,2.0,77,0.00,,---,0.00,VWS V14.01,2013-02-08 01:36:00,
2013-02-07 19:41:00,62.0,55.1,29.86,SW,236,0.0,2.0,78,0.00,,---,0.00,VWS V14.01,2013-02-08 01:41:00,
2013-02-07 19:46:00,61.9,55.0,29.86,SSW,198,1.0,3.0,78,0.00,,---,0.00,VWS V14.01,2013-02-08 01:46:00,
2013-02-07 19:51:00,61.8,54.9,29.86,SSW,198,1.0,3.0,78,0.00,,---,0.00,VWS V14.01,2013-02-08 01:51:00,
2013-02-07 19:56:00,61.7,55.1,29.85,SSW,198,0.0,3.0,79,0.00,,---,0.00,VWS V14.01,2013-02-08 01:56:00,
2013-02-07 20:01:00,61.6,55.0,29.85,SSW,198,0.0,3.0,79,0.00,,---,0.00,VWS V14.01,2013-02-08 02:01:00,
2013-02-07 20:06:00,61.5,54.9,29.85,SSW,198,0.0,0.0,79,0.00,,---,0.00,VWS V14.01,2013-02-08 02:06:00,
2013-02-07 20:11:00,61.4,54.8,29.84,SSW,198,0.0,0.0,79,0.00,,---,0.00,VWS V14.01,2013-02-08 02:11:00,
2013-02-07 20:16:00,61.4,55.2,29.85,SSW,198,0.0,0.0,80,0.00,,---,0.00,VWS V14.01,2013-02-08 02:16:00,
2013-02-07 20:21:00,61.3,55.1,29.84,SSW,198,1.0,2.0,80,0.00,,---,0.00,VWS V14.01,2013-02-08 02:21:00,
2013-02-07 20:26:00,61.1,54.9,29.84,ENE,70,2.0,2.0,80,0.00,,---,0.00,VWS V14.01,2013-02-08 02:26:00,
2013-02-07 20:31:00,61.0,54.8,29.85,ENE,70,0.0,2.0,80,0.00,,---,0.00,VWS V14.01,2013-02-08 02:31:00,
2013-02-07 20:36:00,60.8,54.6,29.85,ENE,70,0.0,0.0,80,0.00,,---,0.00,VWS V14.01,2013-02-08 02:36:00,
2013-02-07 20:41:00,60.5,54.3,29.86,ENE,70,0.0,0.0,80,0.00,,---,0.00,VWS V14.01,2013-02-08 02:41:00,
2013-02-07 20:46:00,60.2,54.4,29.86,ENE,70,0.0,0.0,81,0.00,,---,0.00,VWS V14.01,2013-02-08 02:46:00,
2013-02-07 20:51:00,59.8,54.0,29.86,ENE,70,0.0,0.0,81,0.00,,---,0.00,VWS V14.01,2013-02-08 02:51:00,
2013-02-07 20:56:00,59.6,54.1,29.86,ENE,70,0.0,0.0,82,0.00,,---,0.00,VWS V14.01,2013-02-08 02:56:00,
2013-02-07 21:01:00,59.2,53.7,29.86,ENE,70,0.0,0.0,82,0.00,,---,0.00,VWS V14.01,2013-02-08 03:01:00,
2013-02-07 21:06:00,59.0,53.8,29.86,ENE,70,0.0,0.0,83,0.00,,---,0.00,VWS V14.01,2013-02-08 03:06:00,
2013-02-07 21:11:00,58.8,54.0,29.86,ENE,70,0.0,0.0,84,0.00,,---,0.00,VWS V14.01,2013-02-08 03:11:00,
2013-02-07 21:16:00,58.7,53.9,29.87,ENE,70,0.0,0.0,84,0.00,,---,0.00,VWS V14.01,2013-02-08 03:16:00,
2013-02-07 21:21:00,58.5,53.7,29.87,ENE,70,0.0,0.0,84,0.00,,---,0.00,VWS V14.01,2013-02-08 03:21:00,
2013-02-07 21:26:00,58.4,53.9,29.87,ENE,70,0.0,1.0,85,0.00,,---,0.00,VWS V14.01,2013-02-08 03:26:00,
2013-02-07 21:31:00,58.4,53.9,29.87,ENE,70,0.0,1.0,85,0.00,,---,0.00,VWS V14.01,2013-02-08 03:31:00,
2013-02-07 21:36:00,58.3,53.8,29.87,ENE,70,0.0,0.0,85,0.00,,---,0.00,VWS V14.01,2013-02-08 03:36:00,
2013-02-07 21:41:00,58.2,54.0,29.87,ENE,70,0.0,2.0,86,0.00,,---,0.00,VWS V14.01,2013-02-08 03:41:00,
2013-02-07 21:46:00,58.1,53.9,29.87,ENE,70,0.0,2.0,86,0.00,,---,0.00,VWS V14.01,2013-02-08 03:46:00,
2013-02-07 21:51:00,58.1,53.9,29.87,ENE,70,0.0,2.0,86,0.00,,---,0.00,VWS V14.01,2013-02-08 03:51:00,
2013-02-07 21:56:00,58.1,53.9,29.87,ENE,70,0.0,2.0,86,0.00,,---,0.00,VWS V14.01,2013-02-08 03:56:00,
2013-02-07 22:01:00,58.1,54.3,29.88,ENE,70,0.0,2.0,87,0.01,,---,0.01,VWS V14.01,2013-02-08 04:01:00,
2013-02-07 22:06:00,58.1,54.6,29.87,NNW,341,0.0,0.0,88,0.01,,---,0.01,VWS V14.01,2013-02-08 04:06:00,
2013-02-07 22:11:00,58.0,54.8,29.87,NNW,341,0.0,2.0,89,0.02,,---,0.02,VWS V14.01,2013-02-08 04:11:00,
2013-02-07 22:16:00,58.0,55.1,29.87,NNW,341,0.0,2.0,90,0.02,,---,0.02,VWS V14.01,2013-02-08 04:16:00,
2013-02-07 22:21:00,58.0,55.1,29.87,NNW,341,0.0,2.0,90,0.02,,---,0.02,VWS V14.01,2013-02-08 04:21:00,
2013-02-07 22:26:00,57.9,55.3,29.87,WNW,296,1.0,3.0,91,0.02,,---,0.02,VWS V14.01,2013-02-08 04:26:00,
2013-02-07 22:31:00,57.8,55.2,29.88,WNW,296,0.0,3.0,91,0.02,,---,0.02,VWS V14.01,2013-02-08 04:31:00,
2013-02-07 22:36:00,57.7,55.4,29.88,WNW,296,0.0,0.0,92,0.02,,---,0.02,VWS V14.01,2013-02-08 04:36:00,
2013-02-07 22:41:00,57.6,55.3,29.87,WNW,296,0.0,0.0,92,0.02,,---,0.02,VWS V14.01,2013-02-08 04:41:00,
2013-02-07 22:46:00,57.5,55.5,29.88,WNW,296,1.0,1.0,93,0.03,,---,0.03,VWS V14.01,2013-02-08 04:46:00,
2013-02-07 22:51:00,57.4,55.4,29.87,WNW,296,0.0,1.0,93,0.03,,---,0.03,VWS V14.01,2013-02-08 04:51:00,
2013-02-07 22:56:00,57.3,55.3,29.87,WNW,296,0.0,1.0,93,0.03,,---,0.03,VWS V14.01,2013-02-08 04:56:00,
2013-02-07 23:00:00,57.3,55.3,29.87,WNW,296,0.0,1.0,93,0.04,,---,0.04,VWS V14.01,2013-02-08 05:00:00,
2013-02-07 23:05:00,57.3,55.6,29.86,WNW,296,0.0,0.0,94,0.03,,---,0.04,VWS V14.01,2013-02-08 05:05:00,
2013-02-07 23:10:00,57.3,55.6,29.87,WNW,296,0.0,0.0,94,0.03,,---,0.04,VWS V14.01,2013-02-08 05:10:00,
2013-02-07 23:15:00,57.3,55.6,29.87,WNW,296,0.0,0.0,94,0.03,,---,0.04,VWS V14.01,2013-02-08 05:15:00,
2013-02-07 23:20:00,57.2,55.5,29.87,WNW,296,0.0,1.0,94,0.04,,---,0.05,VWS V14.01,2013-02-08 05:20:00,
2013-02-07 23:25:00,57.2,55.8,29.88,WNW,296,0.0,1.0,95,0.04,,---,0.05,VWS V14.01,2013-02-08 05:25:00,
2013-02-07 23:30:00,57.1,55.7,29.88,WNW,297,2.0,2.0,95,0.06,,---,0.07,VWS V14.01,2013-02-08 05:30:00,
2013-02-07 23:35:00,57.2,55.8,29.88,WNW,300,0.0,1.0,95,0.07,,---,0.09,VWS V14.01,2013-02-08 05:35:00,
2013-02-07 23:40:00,57.2,56.1,29.87,WNW,300,0.0,1.0,96,0.09,,---,0.11,VWS V14.01,2013-02-08 05:40:00,
2013-02-07 23:45:00,57.2,56.1,29.88,WNW,300,0.0,1.0,96,0.09,,---,0.11,VWS V14.01,2013-02-08 05:45:00,
2013-02-07 23:50:00,57.2,56.1,29.88,WNW,300,0.0,1.0,96,0.09,,---,0.11,VWS V14.01,2013-02-08 05:50:00,
2013-02-07 23:55:00,57.2,56.1,29.88,WNW,300,0.0,1.0,96,0.10,,---,0.12,VWS V14.01,2013-02-08 05:55:00,